Simultaneous Nadir Overpasses (SNOs) Predictions

Prediction of SNOs between LANDSAT-8 and TERRA Satellite Orbit:

Table of predicted SNOs for the next 14.0 days since TLE Epoch: 6/3/2023
Index Date (LANDSAT-8) Time (LANDSAT-8) Lat,Lon (LANDSAT-8) SZA (LANDSAT-8 ) Date (TERRA) Time (TERRA) Lat,Lon (TERRA) SZA (TERRA ) Distance(km) Time Diff (sec)
1 06/07/2023 02:01:05 -80.75, 60.62 112.21 06/07/2023 02:02:16 -80.76, 60.53 112.18 1.82 71
2 06/07/2023 02:50:31 80.73,-131.46 67.84 06/07/2023 02:51:38 80.74,-131.59 67.86 2.45 67
3 06/07/2023 03:39:58 -80.75, 35.95 112.21 06/07/2023 03:41:00 -80.75, 35.99 112.16 0.71 62
4 06/07/2023 04:29:23 80.70,-155.81 67.90 06/07/2023 04:30:21 80.70,-155.80 67.94 0.12 58
5 06/07/2023 05:18:50 -80.72, 11.61 112.15 06/07/2023 05:19:43 -80.70, 11.77 112.09 3.23 53
6 06/07/2023 06:08:16 80.69, 179.52 67.90 06/07/2023 06:09:05 80.68, 179.65 67.95 2.60 49
7 06/07/2023 06:57:40 -80.63, -12.08 111.98 06/07/2023 06:58:25 -80.63, -12.13 111.96 1.01 45
8 06/07/2023 07:47:06 80.60, 155.83 68.07 06/07/2023 07:47:47 80.61, 155.75 68.08 1.67 41
9 06/07/2023 08:36:32 -80.59, -36.43 111.93 06/07/2023 08:37:08 -80.59, -36.35 111.89 1.52 36
10 06/07/2023 09:25:58 80.57, 131.48 68.12 06/07/2023 09:26:30 80.56, 131.52 68.15 0.86 32
11 06/07/2023 10:15:22 -80.50, -60.14 111.76 06/07/2023 10:15:50 -80.51, -60.27 111.76 2.72 28
12 06/07/2023 11:04:50 80.53, 107.13 68.18 06/07/2023 11:05:13 80.52, 107.29 68.22 3.38 23
13 06/07/2023 11:54:14 -80.46, -84.50 111.70 06/07/2023 11:54:33 -80.46, -84.51 111.69 0.20 19
14 06/07/2023 12:43:40 80.44, 83.41 68.35 06/07/2023 12:43:55 80.44, 83.37 68.35 0.88 15
15 06/07/2023 13:33:06 -80.43,-108.86 111.64 06/07/2023 13:33:16 -80.42,-108.75 111.62 2.33 10
16 06/07/2023 14:22:32 80.40, 59.04 68.41 06/07/2023 14:22:38 80.39, 59.12 68.42 1.64 6
17 06/07/2023 15:11:56 -80.33,-132.61 111.48 06/07/2023 15:11:58 -80.34,-132.70 111.49 1.91 2
18 06/07/2023 16:01:21 80.27, 35.60 68.63 06/07/2023 16:01:19 80.28, 35.48 68.61 2.62 2
19 06/07/2023 16:50:48 -80.29,-156.98 111.42 06/07/2023 16:50:41 -80.29,-156.95 111.42 0.62 7
20 06/07/2023 17:40:13 80.23, 11.23 68.69 06/07/2023 17:40:02 80.23, 11.22 68.68 0.10 11
21 06/07/2023 18:29:39 -80.22, 178.95 111.31 06/07/2023 18:29:23 -80.21, 179.09 111.29 3.14 16
22 06/07/2023 19:19:05 80.19, -13.15 68.74 06/07/2023 19:18:45 80.18, -13.04 68.75 2.42 20
23 06/07/2023 20:08:29 -80.12, 155.16 111.14 06/07/2023 20:08:05 -80.12, 155.11 111.16 1.10 24
24 06/07/2023 20:57:54 80.05, -36.64 68.97 06/07/2023 20:57:26 80.06, -36.73 68.93 1.83 28
25 06/07/2023 21:47:20 -80.05, 131.07 111.02 06/07/2023 21:46:47 -80.04, 131.13 111.04 1.42 33
26 06/07/2023 22:36:45 79.98, -60.75 69.08 06/07/2023 22:36:08 79.98, -60.72 69.06 0.69 37
27 06/07/2023 23:26:09 -79.90, 107.53 110.80 06/07/2023 23:25:28 -79.92, 107.41 110.85 2.81 41
28 06/08/2023 00:15:37 79.94, -85.14 69.14 06/08/2023 00:14:51 79.93, -85.00 69.13 3.21 46
29 06/08/2023 01:05:00 -79.83, 83.41 110.69 06/08/2023 01:04:10 -79.83, 83.40 110.73 0.29 50
30 06/08/2023 01:54:25 79.76,-108.42 69.42 06/08/2023 01:53:31 79.76,-108.46 69.37 1.04 54
31 06/08/2023 02:43:51 -79.75, 59.28 110.57 06/08/2023 02:42:52 -79.74, 59.37 110.60 2.24 59
32 06/08/2023 03:33:17 79.72,-132.83 69.48 06/08/2023 03:32:14 79.71,-132.76 69.45 1.48 63
33 06/08/2023 04:22:39 -79.56, 35.94 110.29 06/08/2023 04:21:32 -79.57, 35.86 110.36 2.00 67



Historial Predications of SNOs between LANDSAT-8 and TERRA
